Location: Kelshall
(52.0000°N, 0.0500°W)
Time: 22:54:05
(UTC+00:00)

Lacrosse 5 rocket - Pass Details

Date: 18 September 2020
Orbit: 460 x 636 km, 57.0° (Epoch: 30 October)

Event Time Altitude Azimuth Distance (km) Brightness Sun altitude
Rises 21:24:47 0° 288° (WNW) 2,822 5.9 -28.0°
Reaches altitude 10° 21:27:05 10° 295° (WNW) 1,946 4.9 -28.3°
Enters shadow 21:30:45 43° 343° (NNW) 865 2.6 -28.7°
